Time,TemperatureF,DewpointF,PressureIn,WindDirection,WindDirectionDegrees,WindSpeedMPH,WindSpeedGustMPH,Humidity,HourlyPrecipIn,Conditions,Clouds,dailyrainin,SoftwareType,DateUTC
2013-03-21 00:02:00,58.8,37.5,29.90,WNW,288,13.0,13.0,45,0.00,,CLR,0.00,VWS V14.01,2013-03-21 07:02:00,
2013-03-21 00:07:00,58.7,37.4,29.89,West,281,12.0,12.0,45,0.00,,CLR,0.00,VWS V14.01,2013-03-21 07:07:00,
2013-03-21 00:12:00,58.5,37.2,29.89,West,269,10.0,15.0,45,0.00,,CLR,0.00,VWS V14.01,2013-03-21 07:12:00,
2013-03-21 00:18:00,58.4,37.2,29.89,West,271,11.0,11.0,45,0.00,,CLR,0.00,VWS V14.01,2013-03-21 07:18:00,
2013-03-21 00:23:00,58.2,37.5,29.89,West,278,8.0,21.0,46,0.00,,CLR,0.00,VWS V14.01,2013-03-21 07:23:00,
2013-03-21 00:28:00,58.0,37.9,29.89,West,267,8.0,9.0,47,0.00,,CLR,0.00,VWS V14.01,2013-03-21 07:28:00,
2013-03-21 00:33:00,57.8,38.3,29.89,WSW,242,21.0,21.0,48,0.00,,CLR,0.00,VWS V14.01,2013-03-21 07:33:00,
2013-03-21 00:38:00,57.6,38.6,29.89,West,269,8.0,14.0,49,0.00,,CLR,0.00,VWS V14.01,2013-03-21 07:38:00,
2013-03-21 00:43:00,57.5,39.0,29.89,West,281,15.0,21.0,50,0.00,,CLR,0.00,VWS V14.01,2013-03-21 07:43:00,
2013-03-21 00:48:00,57.5,39.0,29.89,WNW,292,19.0,19.0,50,0.00,,CLR,0.00,VWS V14.01,2013-03-21 07:48:00,
2013-03-21 00:54:00,57.5,39.5,29.89,WNW,295,13.0,20.0,51,0.00,,CLR,0.00,VWS V14.01,2013-03-21 07:54:00,
2013-03-21 00:59:00,57.4,39.9,29.89,WNW,294,15.0,20.0,52,0.00,,CLR,0.00,VWS V14.01,2013-03-21 07:59:00,
2013-03-21 01:04:00,57.3,39.8,29.88,WSW,248,8.0,18.0,52,0.00,,CLR,0.00,VWS V14.01,2013-03-21 08:04:00,
2013-03-21 01:09:00,57.3,40.3,29.88,WNW,282,16.0,16.0,53,0.00,,CLR,0.00,VWS V14.01,2013-03-21 08:09:00,
2013-03-21 01:14:00,57.3,40.3,29.88,WSW,239,13.0,19.0,53,0.00,,CLR,0.00,VWS V14.01,2013-03-21 08:14:00,
2013-03-21 01:19:00,57.1,40.6,29.89,West,281,9.0,18.0,54,0.00,,CLR,0.00,VWS V14.01,2013-03-21 08:19:00,
2013-03-21 01:25:00,57.0,40.5,29.89,West,264,8.0,11.0,54,0.00,,CLR,0.00,VWS V14.01,2013-03-21 08:25:00,
2013-03-21 01:30:00,57.0,41.0,29.89,West,271,20.0,20.0,55,0.00,,CLR,0.00,VWS V14.01,2013-03-21 08:30:00,
2013-03-21 01:35:00,57.0,41.0,29.89,West,280,14.0,14.0,55,0.00,,CLR,0.00,VWS V14.01,2013-03-21 08:35:00,
2013-03-21 01:40:00,56.9,41.4,29.88,WSW,253,14.0,15.0,56,0.00,,CLR,0.00,VWS V14.01,2013-03-21 08:40:00,
2013-03-21 01:45:00,56.9,41.8,29.89,WSW,247,4.0,14.0,57,0.00,,CLR,0.00,VWS V14.01,2013-03-21 08:45:00,
2013-03-21 01:50:00,56.8,41.8,29.90,WNW,296,12.0,12.0,57,0.00,,CLR,0.00,VWS V14.01,2013-03-21 08:50:00,
2013-03-21 01:55:00,56.7,41.7,29.90,WNW,284,9.0,15.0,57,0.00,,CLR,0.00,VWS V14.01,2013-03-21 08:55:00,
2013-03-21 02:00:00,56.7,41.7,29.89,West,266,11.0,13.0,57,0.00,,CLR,0.00,VWS V14.01,2013-03-21 09:00:00,
2013-03-21 02:06:00,56.5,41.9,29.88,West,281,19.0,19.0,58,0.00,,CLR,0.00,VWS V14.01,2013-03-21 09:06:00,
2013-03-21 02:11:00,56.4,42.3,29.89,West,279,13.0,19.0,59,0.00,,CLR,0.00,VWS V14.01,2013-03-21 09:11:00,
2013-03-21 02:16:00,56.4,42.3,29.89,West,279,15.0,18.0,59,0.00,,CLR,0.00,VWS V14.01,2013-03-21 09:16:00,
2013-03-21 02:21:00,56.3,42.6,29.90,WNW,282,9.0,16.0,60,0.00,,CLR,0.00,VWS V14.01,2013-03-21 09:21:00,
2013-03-21 02:26:00,56.2,42.5,29.90,WNW,293,11.0,11.0,60,0.00,,CLR,0.00,VWS V14.01,2013-03-21 09:26:00,
2013-03-21 02:31:00,56.0,42.8,29.89,WNW,285,11.0,11.0,61,0.00,,CLR,0.00,VWS V14.01,2013-03-21 09:31:00,
2013-03-21 02:36:00,55.9,43.1,29.88,West,273,14.0,15.0,62,0.00,,CLR,0.00,VWS V14.01,2013-03-21 09:36:00,
2013-03-21 02:41:00,55.8,43.4,29.88,West,274,14.0,14.0,63,0.00,,CLR,0.00,VWS V14.01,2013-03-21 09:41:00,
2013-03-21 02:46:00,55.7,43.3,29.88,WNW,284,12.0,13.0,63,0.00,,CLR,0.00,VWS V14.01,2013-03-21 09:46:00,
2013-03-21 02:51:00,55.7,43.7,29.88,West,281,6.0,8.0,64,0.00,,CLR,0.00,VWS V14.01,2013-03-21 09:51:00,
2013-03-21 02:56:00,55.7,43.7,29.89,West,268,13.0,13.0,64,0.00,,CLR,0.00,VWS V14.01,2013-03-21 09:56:00,
2013-03-21 03:01:00,55.6,43.6,29.88,West,281,11.0,11.0,64,0.00,,CLR,0.00,VWS V14.01,2013-03-21 10:01:00,
2013-03-21 03:06:00,55.5,43.9,29.88,West,278,12.0,12.0,65,0.00,,CLR,0.00,VWS V14.01,2013-03-21 10:06:00,
2013-03-21 03:12:00,55.5,44.3,29.87,West,268,6.0,9.0,66,0.00,,CLR,0.00,VWS V14.01,2013-03-21 10:12:00,
2013-03-21 03:17:00,55.5,44.3,29.87,West,266,7.0,13.0,66,0.00,,CLR,0.00,VWS V14.01,2013-03-21 10:17:00,
2013-03-21 03:22:00,55.4,44.2,29.87,WNW,288,11.0,16.0,66,0.00,,CLR,0.00,VWS V14.01,2013-03-21 10:22:00,
2013-03-21 03:27:00,55.4,44.2,29.87,West,279,9.0,11.0,66,0.00,,CLR,0.00,VWS V14.01,2013-03-21 10:27:00,
2013-03-21 03:32:00,55.4,44.2,29.87,WNW,293,6.0,6.0,66,0.00,,CLR,0.00,VWS V14.01,2013-03-21 10:32:00,
2013-03-21 03:38:00,55.3,44.5,29.86,WNW,283,11.0,12.0,67,0.00,,CLR,0.00,VWS V14.01,2013-03-21 10:38:00,
2013-03-21 03:43:00,55.3,44.5,29.86,West,279,9.0,9.0,67,0.00,,CLR,0.00,VWS V14.01,2013-03-21 10:43:00,
2013-03-21 03:48:00,55.3,44.5,29.86,West,273,13.0,13.0,67,0.00,,CLR,0.00,VWS V14.01,2013-03-21 10:48:00,
2013-03-21 03:54:00,55.4,44.2,29.86,WNW,299,12.0,12.0,66,0.00,,CLR,0.00,VWS V14.01,2013-03-21 10:54:00,
2013-03-21 03:59:00,55.4,44.2,29.85,West,272,8.0,12.0,66,0.00,,CLR,0.00,VWS V14.01,2013-03-21 10:59:00,
2013-03-21 04:04:00,55.5,44.3,29.85,West,273,12.0,16.0,66,0.00,,CLR,0.00,VWS V14.01,2013-03-21 11:04:00,
2013-03-21 04:09:00,55.5,43.9,29.85,WNW,290,8.0,15.0,65,0.00,,CLR,0.00,VWS V14.01,2013-03-21 11:09:00,
2013-03-21 04:14:00,55.5,44.3,29.85,WNW,284,6.0,13.0,66,0.00,,CLR,0.00,VWS V14.01,2013-03-21 11:14:00,
2013-03-21 04:19:00,55.3,44.2,29.85,WNW,283,9.0,23.0,66,0.00,,CLR,0.00,VWS V14.01,2013-03-21 11:19:00,
2013-03-21 04:24:00,55.2,44.5,29.85,West,279,7.0,13.0,67,0.00,,CLR,0.00,VWS V14.01,2013-03-21 11:24:00,
2013-03-21 04:29:00,55.1,44.3,29.86,WNW,286,9.0,14.0,67,0.00,,CLR,0.00,VWS V14.01,2013-03-21 11:29:00,
2013-03-21 04:34:00,54.8,44.1,29.86,WNW,298,14.0,15.0,67,0.00,,CLR,0.00,VWS V14.01,2013-03-21 11:34:00,
2013-03-21 04:40:00,54.7,44.0,29.85,West,271,19.0,20.0,67,0.00,,CLR,0.00,VWS V14.01,2013-03-21 11:40:00,
2013-03-21 04:45:00,54.3,44.0,29.85,WNW,287,12.0,14.0,68,0.00,,CLR,0.00,VWS V14.01,2013-03-21 11:45:00,
2013-03-21 04:50:00,54.1,44.2,29.84,West,264,8.0,13.0,69,0.00,,CLR,0.00,VWS V14.01,2013-03-21 11:50:00,
2013-03-21 04:55:00,53.9,44.3,29.84,West,273,7.0,16.0,70,0.00,,CLR,0.00,VWS V14.01,2013-03-21 11:55:00,
2013-03-21 05:00:00,53.7,44.2,29.85,West,274,14.0,19.0,70,0.00,,CLR,0.00,VWS V14.01,2013-03-21 12:00:00,
2013-03-21 05:05:00,53.5,44.0,29.85,West,276,15.0,15.0,70,0.00,,CLR,0.00,VWS V14.01,2013-03-21 12:05:00,
2013-03-21 05:11:00,53.5,44.0,29.85,West,280,15.0,21.0,70,0.00,,CLR,0.00,VWS V14.01,2013-03-21 12:11:00,
2013-03-21 05:16:00,53.4,44.2,29.84,WNW,294,16.0,24.0,71,0.00,,CLR,0.00,VWS V14.01,2013-03-21 12:16:00,
2013-03-21 05:22:00,53.3,44.2,29.84,WNW,285,14.0,18.0,71,0.00,,CLR,0.00,VWS V14.01,2013-03-21 12:22:00,
2013-03-21 05:27:00,53.2,44.0,29.84,West,267,15.0,22.0,71,0.00,,CLR,0.00,VWS V14.01,2013-03-21 12:27:00,
2013-03-21 05:32:00,53.2,44.0,29.85,West,269,11.0,18.0,71,0.00,,CLR,0.00,VWS V14.01,2013-03-21 12:32:00,
2013-03-21 05:37:00,53.1,44.0,29.85,WNW,284,2.0,13.0,71,0.00,,CLR,0.00,VWS V14.01,2013-03-21 12:37:00,
2013-03-21 05:42:00,53.0,43.9,29.86,WNW,295,12.0,21.0,71,0.00,,CLR,0.00,VWS V14.01,2013-03-21 12:42:00,
2013-03-21 05:48:00,52.9,44.1,29.86,WSW,257,6.0,12.0,72,0.00,,CLR,0.00,VWS V14.01,2013-03-21 12:48:00,
2013-03-21 05:53:00,52.8,43.7,29.85,West,270,7.0,7.0,71,0.00,,CLR,0.00,VWS V14.01,2013-03-21 12:53:00,
2013-03-21 05:58:00,52.7,43.6,29.86,WSW,244,6.0,16.0,71,0.00,,CLR,0.00,VWS V14.01,2013-03-21 12:58:00,
2013-03-21 06:03:00,52.7,43.9,29.86,West,278,6.0,16.0,72,0.00,,CLR,0.00,VWS V14.01,2013-03-21 13:03:00,
2013-03-21 06:08:00,52.6,43.8,29.85,West,274,8.0,15.0,72,0.00,,CLR,0.00,VWS V14.01,2013-03-21 13:08:00,
2013-03-21 06:13:00,52.5,43.8,29.85,WNW,297,19.0,19.0,72,0.00,,CLR,0.00,VWS V14.01,2013-03-21 13:13:00,
2013-03-21 06:19:00,52.5,43.8,29.85,WNW,286,8.0,13.0,72,0.00,,CLR,0.00,VWS V14.01,2013-03-21 13:19:00,
2013-03-21 06:24:00,52.5,43.8,29.85,West,273,13.0,13.0,72,0.00,,CLR,0.00,VWS V14.01,2013-03-21 13:24:00,
2013-03-21 06:29:00,52.4,43.3,29.85,West,268,13.0,14.0,71,0.00,,CLR,0.00,VWS V14.01,2013-03-21 13:29:00,
2013-03-21 06:34:00,52.5,43.4,29.85,West,263,13.0,18.0,71,0.00,,CLR,0.00,VWS V14.01,2013-03-21 13:34:00,
2013-03-21 06:39:00,52.6,43.1,29.85,West,267,8.0,18.0,70,0.00,,CLR,0.00,VWS V14.01,2013-03-21 13:39:00,
2013-03-21 06:44:00,52.7,42.8,29.85,WSW,254,6.0,15.0,69,0.00,,CLR,0.00,VWS V14.01,2013-03-21 13:44:00,
2013-03-21 06:49:00,52.8,42.9,29.85,WNW,284,12.0,12.0,69,0.00,,CLR,0.00,VWS V14.01,2013-03-21 13:49:00,
2013-03-21 06:54:00,52.9,42.6,29.85,West,264,8.0,12.0,68,0.00,,CLR,0.00,VWS V14.01,2013-03-21 13:54:00,
2013-03-21 07:00:00,53.1,42.5,29.85,West,264,2.0,12.0,67,0.00,,CLR,0.00,VWS V14.01,2013-03-21 14:00:00,
2013-03-21 07:05:00,53.1,42.1,29.84,West,281,2.0,12.0,66,0.00,,CLR,0.00,VWS V14.01,2013-03-21 14:05:00,
2013-03-21 07:10:00,53.3,41.8,29.84,WNW,282,4.0,12.0,65,0.00,,CLR,0.00,VWS V14.01,2013-03-21 14:10:00,
2013-03-21 07:15:00,53.4,41.5,29.85,West,263,1.0,12.0,64,0.00,,CLR,0.00,VWS V14.01,2013-03-21 14:15:00,
2013-03-21 07:20:00,53.5,41.2,29.84,West,263,7.0,12.0,63,0.00,,CLR,0.00,VWS V14.01,2013-03-21 14:20:00,
2013-03-21 07:25:00,53.7,41.4,29.84,WNW,289,11.0,12.0,63,0.00,,CLR,0.00,VWS V14.01,2013-03-21 14:25:00,
2013-03-21 07:31:00,54.0,41.3,29.84,West,280,4.0,12.0,62,0.00,,CLR,0.00,VWS V14.01,2013-03-21 14:31:00,
2013-03-21 07:36:00,54.2,41.1,29.83,West,278,6.0,12.0,61,0.00,,CLR,0.00,VWS V14.01,2013-03-21 14:36:00,
2013-03-21 07:42:00,54.6,41.4,29.84,West,280,4.0,6.0,61,0.00,,CLR,0.00,VWS V14.01,2013-03-21 14:42:00,
2013-03-21 07:47:00,54.8,41.2,29.84,West,262,14.0,14.0,60,0.00,,CLR,0.00,VWS V14.01,2013-03-21 14:47:00,
2013-03-21 07:52:00,55.3,40.8,29.84,West,280,4.0,14.0,58,0.00,,CLR,0.00,VWS V14.01,2013-03-21 14:52:00,
2013-03-21 07:57:00,55.8,40.4,29.84,West,281,8.0,8.0,56,0.00,,CLR,0.00,VWS V14.01,2013-03-21 14:57:00,
2013-03-21 08:03:00,56.3,40.4,29.84,West,277,11.0,11.0,55,0.00,,CLR,0.00,VWS V14.01,2013-03-21 15:03:00,
2013-03-21 08:08:00,56.6,40.6,29.83,WNW,284,6.0,11.0,55,0.00,,CLR,0.00,VWS V14.01,2013-03-21 15:08:00,
2013-03-21 08:13:00,56.7,40.7,29.84,West,277,9.0,11.0,55,0.00,,CLR,0.00,VWS V14.01,2013-03-21 15:13:00,
2013-03-21 08:18:00,57.0,41.0,29.84,West,268,10.0,11.0,55,0.00,,CLR,0.00,VWS V14.01,2013-03-21 15:18:00,
2013-03-21 08:24:00,57.0,41.0,29.84,West,268,10.0,11.0,55,0.00,,CLR,0.00,VWS V14.01,2013-03-21 15:24:00,
2013-03-21 08:29:00,57.1,40.2,29.84,WNW,282,9.0,11.0,53,0.00,,CLR,0.00,VWS V14.01,2013-03-21 15:29:00,
2013-03-21 08:34:00,57.5,40.5,29.84,WNW,288,11.0,11.0,53,0.00,,CLR,0.00,VWS V14.01,2013-03-21 15:34:00,
2013-03-21 08:39:00,57.7,40.7,29.84,West,275,12.0,12.0,53,0.00,,CLR,0.00,VWS V14.01,2013-03-21 15:39:00,
2013-03-21 08:44:00,57.9,40.4,29.84,West,269,5.0,12.0,52,0.00,,CLR,0.00,VWS V14.01,2013-03-21 15:44:00,
2013-03-21 08:49:00,58.2,40.7,29.84,NW,310,8.0,9.0,52,0.00,,CLR,0.00,VWS V14.01,2013-03-21 15:49:00,
2013-03-21 08:55:00,58.3,40.8,29.85,WNW,297,8.0,9.0,52,0.00,,CLR,0.00,VWS V14.01,2013-03-21 15:55:00,
2013-03-21 09:00:00,58.4,40.9,29.85,WNW,303,13.0,13.0,52,0.00,,CLR,0.00,VWS V14.01,2013-03-21 16:00:00,
2013-03-21 09:05:00,58.5,41.0,29.84,West,281,7.0,13.0,52,0.00,,CLR,0.00,VWS V14.01,2013-03-21 16:05:00,
2013-03-21 09:10:00,58.5,41.0,29.84,West,264,12.0,12.0,52,0.00,,CLR,0.00,VWS V14.01,2013-03-21 16:10:00,
2013-03-21 09:18:00,58.6,41.0,29.84,West,277,13.0,13.0,52,0.00,,CLR,0.00,VWS V14.01,2013-03-21 16:18:00,
2013-03-21 09:23:00,58.8,41.7,29.85,WNW,286,6.0,13.0,53,0.00,,CLR,0.00,VWS V14.01,2013-03-21 16:23:00,
2013-03-21 09:28:00,58.8,41.2,29.84,WNW,293,15.0,15.0,52,0.00,,CLR,0.00,VWS V14.01,2013-03-21 16:28:00,
2013-03-21 09:33:00,59.0,40.4,29.84,WNW,295,7.0,15.0,50,0.00,,CLR,0.00,VWS V14.01,2013-03-21 16:33:00,
2013-03-21 09:38:00,59.7,40.5,29.85,WNW,294,8.0,9.0,49,0.00,,CLR,0.00,VWS V14.01,2013-03-21 16:38:00,
2013-03-21 09:43:00,59.9,40.7,29.85,WNW,296,8.0,9.0,49,0.00,,CLR,0.00,VWS V14.01,2013-03-21 16:43:00,
2013-03-21 09:49:00,60.6,40.8,29.84,WNW,292,12.0,12.0,48,0.00,,CLR,0.00,VWS V14.01,2013-03-21 16:49:00,
2013-03-21 09:54:00,60.9,41.1,29.85,WNW,300,5.0,12.0,48,0.00,,CLR,0.00,VWS V14.01,2013-03-21 16:54:00,
2013-03-21 09:59:00,61.7,41.3,29.85,WNW,300,4.0,7.0,47,0.00,,CLR,0.00,VWS V14.01,2013-03-21 16:59:00,
2013-03-21 10:04:00,62.0,39.3,29.85,WNW,292,6.0,7.0,43,0.00,,CLR,0.00,VWS V14.01,2013-03-21 17:04:00,
2013-03-21 10:09:00,62.5,39.7,29.85,WNW,300,5.0,11.0,43,0.00,,CLR,0.00,VWS V14.01,2013-03-21 17:09:00,
2013-03-21 10:15:00,62.8,38.8,29.85,WNW,296,6.0,11.0,41,0.00,,CLR,0.00,VWS V14.01,2013-03-21 17:15:00,
2013-03-21 10:20:00,63.5,39.4,29.84,WNW,287,7.0,7.0,41,0.00,,CLR,0.00,VWS V14.01,2013-03-21 17:20:00,
2013-03-21 10:25:00,63.8,38.4,29.85,WNW,285,4.0,7.0,39,0.00,,CLR,0.00,VWS V14.01,2013-03-21 17:25:00,
2013-03-21 10:30:00,64.5,38.3,29.84,WNW,299,5.0,7.0,38,0.00,,CLR,0.00,VWS V14.01,2013-03-21 17:30:00,
2013-03-21 10:35:00,65.0,40.1,29.84,WNW,299,1.0,7.0,40,0.00,,CLR,0.00,VWS V14.01,2013-03-21 17:35:00,
2013-03-21 10:41:00,66.2,38.5,29.84,NW,318,1.0,7.0,36,0.00,,CLR,0.00,VWS V14.01,2013-03-21 17:41:00,
2013-03-21 10:46:00,66.8,39.0,29.84,NW,320,0.0,7.0,36,0.00,,CLR,0.00,VWS V14.01,2013-03-21 17:46:00,
2013-03-21 10:51:00,67.4,37.3,29.84,NW,316,0.0,7.0,33,0.00,,CLR,0.00,VWS V14.01,2013-03-21 17:51:00,
2013-03-21 10:56:00,67.5,38.2,29.85,NW,315,4.0,4.0,34,0.00,,CLR,0.00,VWS V14.01,2013-03-21 17:56:00,
2013-03-21 11:01:00,67.5,38.2,29.84,NW,316,7.0,7.0,34,0.00,,CLR,0.00,VWS V14.01,2013-03-21 18:01:00,
2013-03-21 11:07:00,67.2,36.4,29.85,NW,309,2.0,7.0,32,0.00,,CLR,0.00,VWS V14.01,2013-03-21 18:07:00,
2013-03-21 11:12:00,67.0,37.0,29.85,NW,309,4.0,4.0,33,0.00,,CLR,0.00,VWS V14.01,2013-03-21 18:12:00,
2013-03-21 11:17:00,66.9,36.9,29.84,NW,309,2.0,4.0,33,0.00,,CLR,0.00,VWS V14.01,2013-03-21 18:17:00,
2013-03-21 11:22:00,66.8,36.0,29.84,NW,309,4.0,4.0,32,0.00,,CLR,0.00,VWS V14.01,2013-03-21 18:22:00,
2013-03-21 11:27:00,67.2,37.2,29.84,NW,311,0.0,5.0,33,0.00,,CLR,0.00,VWS V14.01,2013-03-21 18:27:00,
2013-03-21 11:32:00,67.5,36.6,29.84,NW,311,6.0,6.0,32,0.00,,CLR,0.00,VWS V14.01,2013-03-21 18:32:00,
2013-03-21 11:37:00,68.1,36.3,29.84,NW,311,1.0,6.0,31,0.00,,CLR,0.00,VWS V14.01,2013-03-21 18:37:00,
2013-03-21 11:43:00,68.3,35.7,29.84,NW,311,0.0,6.0,30,0.00,,CLR,0.00,VWS V14.01,2013-03-21 18:43:00,
2013-03-21 11:48:00,69.2,36.5,29.84,NW,315,0.0,2.0,30,0.00,,CLR,0.00,VWS V14.01,2013-03-21 18:48:00,
2013-03-21 11:53:00,69.5,35.0,29.84,NW,313,2.0,2.0,28,0.00,,CLR,0.00,VWS V14.01,2013-03-21 18:53:00,
2013-03-21 11:58:00,70.1,33.7,29.83,NW,313,0.0,4.0,26,0.00,,CLR,0.00,VWS V14.01,2013-03-21 18:58:00,
2013-03-21 12:03:00,70.4,33.9,29.83,NW,313,0.0,4.0,26,0.00,,CLR,0.00,VWS V14.01,2013-03-21 19:03:00,
2013-03-21 12:09:00,70.5,34.0,29.83,NW,313,0.0,4.0,26,0.00,,CLR,0.00,VWS V14.01,2013-03-21 19:09:00,
2013-03-21 12:14:00,70.6,34.1,29.83,NW,313,4.0,4.0,26,0.00,,CLR,0.00,VWS V14.01,2013-03-21 19:14:00,
2013-03-21 12:19:00,70.6,35.0,29.82,NNE,14,0.0,5.0,27,0.00,,CLR,0.00,VWS V14.01,2013-03-21 19:19:00,
2013-03-21 12:24:00,70.9,37.1,29.82,NE,52,0.0,5.0,29,0.00,,CLR,0.00,VWS V14.01,2013-03-21 19:24:00,
2013-03-21 12:29:00,71.9,37.1,29.82,NW,308,11.0,11.0,28,0.00,,CLR,0.00,VWS V14.01,2013-03-21 19:29:00,
2013-03-21 12:34:00,72.1,36.3,29.82,WNW,289,6.0,11.0,27,0.00,,CLR,0.00,VWS V14.01,2013-03-21 19:34:00,
2013-03-21 12:39:00,72.4,37.5,29.82,WNW,293,9.0,9.0,28,0.00,,CLR,0.00,VWS V14.01,2013-03-21 19:39:00,
2013-03-21 12:45:00,72.5,37.6,29.82,NW,315,8.0,9.0,28,0.00,,CLR,0.00,VWS V14.01,2013-03-21 19:45:00,
2013-03-21 12:50:00,72.1,37.2,29.82,WNW,298,9.0,9.0,28,0.00,,CLR,0.00,VWS V14.01,2013-03-21 19:50:00,
2013-03-21 12:55:00,71.9,38.0,29.82,WNW,300,7.0,9.0,29,0.00,,CLR,0.00,VWS V14.01,2013-03-21 19:55:00,
2013-03-21 13:00:00,71.5,35.8,29.82,WNW,298,12.0,12.0,27,0.00,,CLR,0.00,VWS V14.01,2013-03-21 20:00:00,
2013-03-21 13:05:00,71.3,36.5,29.81,NW,321,1.0,12.0,28,0.00,,CLR,0.00,VWS V14.01,2013-03-21 20:05:00,
2013-03-21 13:10:00,72.0,35.3,29.81,NNW,340,1.0,12.0,26,0.00,,CLR,0.00,VWS V14.01,2013-03-21 20:10:00,
2013-03-21 13:16:00,72.6,36.7,29.80,WNW,300,2.0,2.0,27,0.00,,CLR,0.00,VWS V14.01,2013-03-21 20:16:00,
2013-03-21 13:22:00,73.5,36.5,29.80,North,350,6.0,6.0,26,0.00,,CLR,0.00,VWS V14.01,2013-03-21 20:22:00,
2013-03-21 13:27:00,74.1,36.1,29.80,NW,306,0.0,6.0,25,0.00,,CLR,0.00,VWS V14.01,2013-03-21 20:27:00,
2013-03-21 13:32:00,74.2,36.2,29.79,NW,305,6.0,6.0,25,0.00,,CLR,0.00,VWS V14.01,2013-03-21 20:32:00,
2013-03-21 13:37:00,74.3,35.2,29.79,NW,316,6.0,6.0,24,0.00,,CLR,0.00,VWS V14.01,2013-03-21 20:37:00,
2013-03-21 13:43:00,74.2,33.0,29.79,WNW,296,5.0,6.0,22,0.00,,CLR,0.00,VWS V14.01,2013-03-21 20:43:00,
2013-03-21 13:48:00,74.2,31.8,29.77,WNW,288,5.0,7.0,21,0.00,,CLR,0.00,VWS V14.01,2013-03-21 20:48:00,
2013-03-21 13:53:00,74.2,33.0,29.77,WNW,294,7.0,7.0,22,0.00,,CLR,0.00,VWS V14.01,2013-03-21 20:53:00,
2013-03-21 13:58:00,74.6,32.1,29.77,NW,307,7.0,14.0,21,0.00,,CLR,0.00,VWS V14.01,2013-03-21 20:58:00,
2013-03-21 14:04:00,75.0,31.2,29.77,WNW,301,13.0,14.0,20,0.00,,CLR,0.00,VWS V14.01,2013-03-21 21:04:00,
2013-03-21 14:09:00,75.0,27.3,29.76,NW,306,17.0,17.0,17,0.00,,CLR,0.00,VWS V14.01,2013-03-21 21:09:00,
2013-03-21 14:14:00,74.8,27.1,29.76,West,281,16.0,17.0,17,0.00,,CLR,0.00,VWS V14.01,2013-03-21 21:14:00,
2013-03-21 14:19:00,74.7,29.7,29.76,WNW,283,16.0,17.0,19,0.00,,CLR,0.00,VWS V14.01,2013-03-21 21:19:00,
2013-03-21 14:24:00,74.6,27.0,29.76,West,266,15.0,17.0,17,0.00,,CLR,0.00,VWS V14.01,2013-03-21 21:24:00,
2013-03-21 14:30:00,74.6,25.5,29.75,WNW,287,9.0,17.0,16,0.00,,CLR,0.00,VWS V14.01,2013-03-21 21:30:00,
2013-03-21 14:35:00,74.3,23.7,29.75,WNW,288,9.0,17.0,15,0.00,,CLR,0.00,VWS V14.01,2013-03-21 21:35:00,
2013-03-21 14:40:00,74.2,25.2,29.74,WNW,296,15.0,17.0,16,0.00,,CLR,0.00,VWS V14.01,2013-03-21 21:40:00,
2013-03-21 14:45:00,74.3,23.7,29.74,West,281,13.0,17.0,15,0.00,,CLR,0.00,VWS V14.01,2013-03-21 21:45:00,
2013-03-21 14:50:00,74.6,23.9,29.74,NW,318,11.0,11.0,15,0.00,,CLR,0.00,VWS V14.01,2013-03-21 21:50:00,
2013-03-21 14:56:00,74.5,23.9,29.74,West,271,2.0,11.0,15,0.00,,CLR,0.00,VWS V14.01,2013-03-21 21:56:00,
2013-03-21 15:01:00,74.9,20.8,29.74,WNW,293,11.0,15.0,13,0.00,,CLR,0.00,VWS V14.01,2013-03-21 22:01:00,
2013-03-21 15:06:00,75.1,20.9,29.74,WNW,290,11.0,15.0,13,0.00,,CLR,0.00,VWS V14.01,2013-03-21 22:06:00,
2013-03-21 15:11:00,75.2,19.1,29.74,West,276,14.0,15.0,12,0.00,,CLR,0.00,VWS V14.01,2013-03-21 22:11:00,
2013-03-21 15:16:00,75.2,26.0,29.74,WNW,290,16.0,18.0,16,0.00,,CLR,0.00,VWS V14.01,2013-03-21 22:16:00,
2013-03-21 15:21:00,74.9,22.5,29.73,NW,306,15.0,16.0,14,0.00,,CLR,0.00,VWS V14.01,2013-03-21 22:21:00,
2013-03-21 15:27:00,74.9,22.5,29.73,WNW,302,15.0,16.0,14,0.00,,CLR,0.00,VWS V14.01,2013-03-21 22:27:00,
2013-03-21 15:32:00,74.8,22.5,29.73,WNW,302,9.0,15.0,14,0.00,,CLR,0.00,VWS V14.01,2013-03-21 22:32:00,
2013-03-21 15:38:00,74.3,20.3,29.73,WNW,285,13.0,13.0,13,0.00,,CLR,0.00,VWS V14.01,2013-03-21 22:38:00,
2013-03-21 15:44:00,74.3,25.2,29.72,West,267,13.0,13.0,16,0.00,,CLR,0.00,VWS V14.01,2013-03-21 22:44:00,
2013-03-21 15:49:00,73.7,18.0,29.72,WNW,299,15.0,19.0,12,0.00,,CLR,0.00,VWS V14.01,2013-03-21 22:49:00,
2013-03-21 15:54:00,73.4,17.7,29.72,West,277,16.0,19.0,12,0.00,,CLR,0.00,VWS V14.01,2013-03-21 22:54:00,
2013-03-21 15:59:00,73.5,13.6,29.72,West,272,11.0,19.0,10,0.00,,CLR,0.00,VWS V14.01,2013-03-21 22:59:00,
2013-03-21 16:04:00,73.7,18.0,29.73,West,271,22.0,22.0,12,0.00,,CLR,0.00,VWS V14.01,2013-03-21 23:04:00,
2013-03-21 16:09:00,73.2,15.6,29.73,WNW,300,16.0,22.0,11,0.00,,CLR,0.00,VWS V14.01,2013-03-21 23:09:00,
2013-03-21 16:14:00,73.1,17.5,29.73,WNW,292,20.0,22.0,12,0.00,,CLR,0.00,VWS V14.01,2013-03-21 23:14:00,
2013-03-21 16:19:00,73.0,15.4,29.73,WNW,295,13.0,22.0,11,0.00,,CLR,0.00,VWS V14.01,2013-03-21 23:19:00,
2013-03-21 16:24:00,72.9,15.4,29.73,WNW,286,19.0,22.0,11,0.00,,CLR,0.00,VWS V14.01,2013-03-21 23:24:00,
2013-03-21 16:29:00,72.2,16.8,29.73,WNW,284,16.0,16.0,12,0.00,,CLR,0.00,VWS V14.01,2013-03-21 23:29:00,
2013-03-21 16:35:00,72.2,14.8,29.73,West,273,20.0,20.0,11,0.00,,CLR,0.00,VWS V14.01,2013-03-21 23:35:00,
2013-03-21 16:40:00,71.2,16.0,29.73,West,269,12.0,14.0,12,0.00,,CLR,0.00,VWS V14.01,2013-03-21 23:40:00,
2013-03-21 16:45:00,70.8,15.7,29.73,West,275,15.0,15.0,12,0.00,,CLR,0.00,VWS V14.01,2013-03-21 23:45:00,
2013-03-21 16:50:00,70.5,17.3,29.73,West,277,9.0,14.0,13,0.00,,CLR,0.00,VWS V14.01,2013-03-21 23:50:00,
2013-03-21 16:55:00,70.4,17.2,29.73,WNW,284,15.0,15.0,13,0.00,,CLR,0.00,VWS V14.01,2013-03-21 23:55:00,
2013-03-21 17:00:00,69.9,16.9,29.73,West,267,10.0,14.0,13,0.00,,CLR,0.00,VWS V14.01,2013-03-22 00:00:00,
2013-03-21 17:06:00,69.8,16.8,29.73,NW,306,17.0,17.0,13,0.00,,CLR,0.00,VWS V14.01,2013-03-22 00:06:00,
2013-03-21 17:11:00,69.3,18.1,29.74,West,264,18.0,18.0,14,0.00,,CLR,0.00,VWS V14.01,2013-03-22 00:11:00,
2013-03-21 17:16:00,68.9,16.1,29.74,West,281,8.0,18.0,13,0.00,,CLR,0.00,VWS V14.01,2013-03-22 00:16:00,
2013-03-21 17:21:00,68.9,17.8,29.74,West,281,18.0,18.0,14,0.00,,CLR,0.00,VWS V14.01,2013-03-22 00:21:00,
2013-03-21 17:26:00,68.3,18.9,29.74,WNW,287,13.0,18.0,15,0.00,,CLR,0.00,VWS V14.01,2013-03-22 00:26:00,
2013-03-21 17:31:00,67.9,24.1,29.74,WNW,294,16.0,18.0,19,0.00,,CLR,0.00,VWS V14.01,2013-03-22 00:31:00,
2013-03-21 17:37:00,66.3,29.5,29.74,WNW,302,14.0,18.0,25,0.00,,CLR,0.00,VWS V14.01,2013-03-22 00:37:00,
2013-03-21 17:42:00,65.6,29.8,29.74,WNW,294,9.0,18.0,26,0.00,,CLR,0.00,VWS V14.01,2013-03-22 00:42:00,
2013-03-21 17:47:00,64.5,28.9,29.74,WNW,294,7.0,18.0,26,0.00,,CLR,0.00,VWS V14.01,2013-03-22 00:47:00,
2013-03-21 17:52:00,64.2,31.3,29.74,West,273,19.0,19.0,29,0.00,,CLR,0.00,VWS V14.01,2013-03-22 00:52:00,
2013-03-21 17:58:00,63.0,30.3,29.74,West,278,24.0,24.0,29,0.00,,CLR,0.00,VWS V14.01,2013-03-22 00:58:00,
2013-03-21 18:03:00,62.9,31.8,29.74,WNW,294,14.0,24.0,31,0.00,,,0.00,VWS V14.01,2013-03-22 01:03:00,
2013-03-21 18:08:00,62.3,32.9,29.74,West,275,15.0,24.0,33,0.00,,,0.00,VWS V14.01,2013-03-22 01:08:00,
2013-03-21 18:13:00,62.1,32.7,29.74,West,265,19.0,24.0,33,0.00,,,0.00,VWS V14.01,2013-03-22 01:13:00,
2013-03-21 18:18:00,61.1,31.8,29.74,WSW,238,14.0,19.0,33,0.00,,,0.00,VWS V14.01,2013-03-22 01:18:00,
2013-03-21 18:23:00,60.8,30.8,29.74,WNW,284,12.0,19.0,32,0.00,,,0.00,VWS V14.01,2013-03-22 01:23:00,
2013-03-21 18:28:00,60.1,29.4,29.74,West,275,12.0,28.0,31,0.00,,,0.00,VWS V14.01,2013-03-22 01:28:00,
2013-03-21 18:34:00,59.9,28.4,29.74,West,269,13.0,28.0,30,0.00,,,0.00,VWS V14.01,2013-03-22 01:34:00,
2013-03-21 18:39:00,59.9,25.9,29.74,WNW,298,8.0,8.0,27,0.00,,,0.00,VWS V14.01,2013-03-22 01:39:00,
2013-03-21 18:44:00,59.8,29.1,29.75,West,275,9.0,9.0,31,0.00,,,0.00,VWS V14.01,2013-03-22 01:44:00,
2013-03-21 18:49:00,59.1,30.0,29.74,West,279,9.0,16.0,33,0.00,,,0.00,VWS V14.01,2013-03-22 01:49:00,
2013-03-21 18:54:00,58.9,28.3,29.74,West,276,16.0,16.0,31,0.00,,,0.00,VWS V14.01,2013-03-22 01:54:00,
2013-03-21 18:59:00,58.9,25.9,29.74,WNW,294,7.0,16.0,28,0.00,,,0.00,VWS V14.01,2013-03-22 01:59:00,
2013-03-21 19:04:00,58.9,26.7,29.75,WNW,289,15.0,16.0,29,0.00,,CLR,0.00,VWS V14.01,2013-03-22 02:04:00,
2013-03-21 19:10:00,58.1,29.9,29.75,West,269,6.0,29.0,34,0.00,,CLR,0.00,VWS V14.01,2013-03-22 02:10:00,
2013-03-21 19:15:00,57.6,30.9,29.74,WSW,240,11.0,29.0,36,0.00,,CLR,0.00,VWS V14.01,2013-03-22 02:15:00,
2013-03-21 19:20:00,57.2,30.5,29.73,WSW,256,17.0,29.0,36,0.00,,CLR,0.00,VWS V14.01,2013-03-22 02:20:00,
2013-03-21 19:25:00,57.0,30.3,29.74,WNW,286,12.0,25.0,36,0.00,,CLR,0.00,VWS V14.01,2013-03-22 02:25:00,
2013-03-21 19:30:00,56.9,29.5,29.76,West,281,11.0,16.0,35,0.00,,CLR,0.00,VWS V14.01,2013-03-22 02:30:00,
2013-03-21 19:35:00,56.9,30.2,29.76,West,275,9.0,20.0,36,0.00,,CLR,0.00,VWS V14.01,2013-03-22 02:35:00,
2013-03-21 19:40:00,56.7,31.4,29.76,WNW,297,8.0,14.0,38,0.00,,CLR,0.00,VWS V14.01,2013-03-22 02:40:00,
2013-03-21 19:45:00,56.4,32.4,29.76,NW,309,7.0,7.0,40,0.00,,CLR,0.00,VWS V14.01,2013-03-22 02:45:00,
2013-03-21 19:51:00,56.1,32.7,29.76,WNW,285,5.0,13.0,41,0.00,,CLR,0.00,VWS V14.01,2013-03-22 02:51:00,
2013-03-21 19:57:00,55.9,33.2,29.76,West,280,14.0,21.0,42,0.00,,CLR,0.00,VWS V14.01,2013-03-22 02:57:00,
2013-03-21 20:02:00,55.9,32.6,29.76,West,274,8.0,21.0,41,0.00,,CLR,0.00,VWS V14.01,2013-03-22 03:02:00,
2013-03-21 20:07:00,56.1,31.5,29.76,WNW,283,14.0,14.0,39,0.00,,CLR,0.00,VWS V14.01,2013-03-22 03:07:00,
2013-03-21 20:12:00,56.1,30.9,29.76,West,279,18.0,18.0,38,0.00,,CLR,0.00,VWS V14.01,2013-03-22 03:12:00,
2013-03-21 20:17:00,56.0,29.4,29.77,WNW,284,7.0,11.0,36,0.00,,CLR,0.00,VWS V14.01,2013-03-22 03:17:00,
2013-03-21 20:22:00,56.1,28.1,29.77,West,277,6.0,12.0,34,0.00,,CLR,0.00,VWS V14.01,2013-03-22 03:22:00,
2013-03-21 20:27:00,56.1,27.4,29.77,West,274,6.0,6.0,33,0.00,,CLR,0.00,VWS V14.01,2013-03-22 03:27:00,
2013-03-21 20:32:00,56.1,28.8,29.77,West,271,15.0,15.0,35,0.00,,CLR,0.00,VWS V14.01,2013-03-22 03:32:00,
2013-03-21 20:37:00,56.0,29.4,29.77,WSW,248,7.0,7.0,36,0.00,,CLR,0.00,VWS V14.01,2013-03-22 03:37:00,
2013-03-21 20:43:00,55.6,33.5,29.75,SW,235,14.0,23.0,43,0.00,,CLR,0.00,VWS V14.01,2013-03-22 03:43:00,
2013-03-21 20:48:00,55.1,34.2,29.75,West,261,13.0,17.0,45,0.00,,CLR,0.00,VWS V14.01,2013-03-22 03:48:00,
2013-03-21 20:53:00,54.8,34.4,29.76,West,263,22.0,28.0,46,0.00,,CLR,0.00,VWS V14.01,2013-03-22 03:53:00,
2013-03-21 20:58:00,54.5,34.7,29.75,WSW,254,7.0,28.0,47,0.00,,CLR,0.00,VWS V14.01,2013-03-22 03:58:00,
2013-03-21 21:00:00,54.5,34.7,29.76,WSW,252,5.0,28.0,47,0.00,,CLR,0.00,VWS V14.01,2013-03-22 04:00:00,
2013-03-21 21:01:00,54.4,35.1,29.76,West,279,21.0,28.0,48,0.00,,CLR,0.00,VWS V14.01,2013-03-22 04:01:00,
2013-03-21 21:03:00,54.4,35.1,29.76,West,268,11.0,23.0,48,0.00,,CLR,0.00,VWS V14.01,2013-03-22 04:03:00,
2013-03-21 21:05:00,54.2,35.0,29.77,West,274,12.0,23.0,48,0.00,,CLR,0.00,VWS V14.01,2013-03-22 04:05:00,
2013-03-21 21:11:00,54.1,35.4,29.78,NW,304,15.0,19.0,49,0.00,,CLR,0.00,VWS V14.01,2013-03-22 04:11:00,
2013-03-21 21:16:00,54.0,35.8,29.78,WSW,246,6.0,13.0,50,0.00,,CLR,0.00,VWS V14.01,2013-03-22 04:16:00,
2013-03-21 21:22:00,53.9,35.7,29.78,West,277,12.0,15.0,50,0.00,,CLR,0.00,VWS V14.01,2013-03-22 04:22:00,
2013-03-21 21:27:00,53.9,35.2,29.77,WNW,286,22.0,22.0,49,0.00,,CLR,0.00,VWS V14.01,2013-03-22 04:27:00,
2013-03-21 21:32:00,53.9,34.7,29.77,West,281,15.0,22.0,48,0.00,,CLR,0.00,VWS V14.01,2013-03-22 04:32:00,
2013-03-21 21:37:00,53.9,34.7,29.77,West,271,11.0,22.0,48,0.00,,CLR,0.00,VWS V14.01,2013-03-22 04:37:00,
2013-03-21 21:42:00,53.9,34.7,29.77,West,274,8.0,20.0,48,0.00,,CLR,0.00,VWS V14.01,2013-03-22 04:42:00,
2013-03-21 21:47:00,54.0,34.2,29.77,West,270,13.0,13.0,47,0.00,,CLR,0.00,VWS V14.01,2013-03-22 04:47:00,
2013-03-21 21:52:00,54.1,33.8,29.77,WSW,251,10.0,28.0,46,0.00,,CLR,0.00,VWS V14.01,2013-03-22 04:52:00,
2013-03-21 21:57:00,54.3,32.9,29.77,WNW,290,26.0,26.0,44,0.00,,CLR,0.00,VWS V14.01,2013-03-22 04:57:00,
2013-03-21 22:08:00,54.8,32.2,29.78,West,268,13.0,26.0,42,0.00,,CLR,0.00,VWS V14.01,2013-03-22 05:08:00,
2013-03-21 22:13:00,55.0,31.8,29.78,WNW,292,9.0,13.0,41,0.00,,CLR,0.00,VWS V14.01,2013-03-22 05:13:00,
2013-03-21 22:18:00,55.0,32.9,29.78,West,279,12.0,16.0,43,0.00,,CLR,0.00,VWS V14.01,2013-03-22 05:18:00,
2013-03-21 22:23:00,54.8,33.3,29.78,WNW,282,16.0,16.0,44,0.00,,CLR,0.00,VWS V14.01,2013-03-22 05:23:00,
2013-03-21 22:28:00,54.5,34.7,29.77,West,274,14.0,20.0,47,0.00,,CLR,0.00,VWS V14.01,2013-03-22 05:28:00,
2013-03-21 22:33:00,54.2,33.9,29.77,WNW,287,15.0,25.0,46,0.00,,CLR,0.00,VWS V14.01,2013-03-22 05:33:00,
2013-03-21 22:38:00,54.0,34.2,29.76,WNW,290,20.0,20.0,47,0.00,,CLR,0.00,VWS V14.01,2013-03-22 05:38:00,
2013-03-21 22:44:00,54.0,34.2,29.76,West,270,8.0,13.0,47,0.00,,CLR,0.00,VWS V14.01,2013-03-22 05:44:00,
2013-03-21 22:49:00,54.1,33.8,29.76,West,275,13.0,16.0,46,0.00,,CLR,0.00,VWS V14.01,2013-03-22 05:49:00,
2013-03-21 22:54:00,54.2,33.9,29.76,West,281,12.0,15.0,46,0.00,,CLR,0.00,VWS V14.01,2013-03-22 05:54:00,
2013-03-21 22:59:00,54.3,34.0,29.77,West,279,11.0,19.0,46,0.00,,CLR,0.00,VWS V14.01,2013-03-22 05:59:00,
2013-03-21 23:04:00,54.3,34.5,29.77,West,281,13.0,13.0,47,0.00,,CLR,0.00,VWS V14.01,2013-03-22 06:04:00,
2013-03-21 23:09:00,54.3,35.0,29.78,WNW,292,12.0,18.0,48,0.00,,CLR,0.00,VWS V14.01,2013-03-22 06:09:00,
2013-03-21 23:14:00,54.4,34.6,29.79,West,279,13.0,23.0,47,0.00,,CLR,0.00,VWS V14.01,2013-03-22 06:14:00,
2013-03-21 23:19:00,54.3,35.0,29.79,WNW,290,6.0,17.0,48,0.00,,CLR,0.00,VWS V14.01,2013-03-22 06:19:00,
2013-03-21 23:24:00,54.1,35.4,29.79,WSW,246,7.0,18.0,49,0.00,,CLR,0.00,VWS V14.01,2013-03-22 06:24:00,
2013-03-21 23:29:00,54.1,36.4,29.78,West,274,21.0,21.0,51,0.00,,CLR,0.00,VWS V14.01,2013-03-22 06:29:00,
2013-03-21 23:35:00,54.1,36.9,29.78,West,273,12.0,24.0,52,0.00,,CLR,0.00,VWS V14.01,2013-03-22 06:35:00,
2013-03-21 23:40:00,53.9,37.2,29.78,West,265,13.0,24.0,53,0.00,,CLR,0.00,VWS V14.01,2013-03-22 06:40:00,
2013-03-21 23:45:00,53.8,37.6,29.78,WNW,290,24.0,24.0,54,0.00,,CLR,0.00,VWS V14.01,2013-03-22 06:45:00,
2013-03-21 23:50:00,53.7,37.5,29.79,West,271,14.0,24.0,54,0.00,,CLR,0.00,VWS V14.01,2013-03-22 06:50:00,
2013-03-21 23:55:00,53.7,37.5,29.79,West,276,12.0,16.0,54,0.00,,CLR,0.00,VWS V14.01,2013-03-22 06:55:00,